EW6754 Weather Reports


Display with metric or nautical units.
time (UTC)temp
F
wind
direction
speed
MPH
gust
MPH
rain 1hr
in
rain 24hr
in
rain mn
in
humidity
%
barometer
mb
20260903083003 76 191 0.0 0.0 0.00 0.05 0.00 59 1013.6
20260903081504 76 191 0.0 0.0 0.00 0.05 0.00 58 1013.6
20260903080002 76 191 0.0 0.0 0.00 0.05 0.00 58 1013.6
20260903074604 76 191 0.0 0.0 0.00 0.05 0.00 58 1013.6
20260903073108 77 191 0.0 0.0 0.00 0.05 0.00 59 1013.6
20260903071604 77 200 0.0 0.0 0.00 0.05 0.00 59 1013.5
20260903070059 77 176 0.0 0.0 0.00 0.05 0.00 63 1013.6
20260903064554 77 211 0.0 0.0 0.00 0.05 0.00 65 1013.7
20260903063056 77 211 0.0 0.0 0.00 0.05 0.00 66 1013.7
20260903061603 77 211 0.0 0.0 0.00 0.05 0.00 62 1013.6
20260903060052 77 211 0.0 0.0 0.00 0.05 0.00 60 1013.8
20260903054550 77 203 0.0 0.0 0.00 0.05 0.00 60 1014.0
20260903053104 77 203 0.0 0.0 0.00 0.05 0.00 61 1014.1
20260903051545 77 167 0.0 0.0 0.00 0.05 0.00 64 1014.1
20260903050043 77 158 0.0 0.0 0.00 0.05 0.00 64 1014.4
20260903044540 77 158 0.0 0.0 0.00 0.05 0.00 65 1014.5
20260903043041 78 158 0.0 0.0 0.00 0.05 0.00 65 1014.7
20260903041540 78 158 0.0 0.0 0.00 0.05 0.00 65 1014.8
20260903040031 78 158 0.0 0.0 0.00 0.05 0.05 67 1014.8
20260903034531 78 233 0.0 0.0 0.00 0.05 0.05 68 1014.9
20260903033030 78 224 0.0 0.0 0.00 0.05 0.05 69 1015.0
20260903031531 78 224 0.0 0.0 0.00 0.05 0.05 70 1014.9
20260903030055 79 224 0.0 0.0 0.00 0.05 0.05 70 1015.1
20260903024530 78 224 0.0 0.0 0.00 0.05 0.05 70 1015.1
20260903023028 79 224 0.0 0.0 0.00 0.05 0.05 70 1015.0
20260903021531 79 224 0.0 0.0 0.00 0.05 0.05 70 1015.0
20260903020027 79 224 0.0 0.0 0.00 0.05 0.05 71 1014.8
20260903014527 79 162 0.0 0.0 0.00 0.05 0.05 72 1014.8
20260903013038 80 162 0.0 0.0 0.00 0.05 0.05 72 1014.8
20260903011526 80 204 0.0 0.0 0.00 0.05 0.05 74 1014.7
20260903010033 80 349 0.0 0.0 0.00 0.05 0.05 74 1014.7
20260903004525 81 349 0.0 0.0 0.00 0.05 0.05 75 1014.6
20260903003025 81 349 0.0 0.0 0.00 0.05 0.05 74 1014.5
20260903001523 80 349 0.0 0.0 0.00 0.05 0.05 67 1014.3
20260903000023 80 349 0.0 0.0 0.00 0.05 0.05 34 1014.1
20260902234525 79 283 0.0 0.0 0.00 0.05 0.05 34 1014.0
20260902233023 79 283 0.0 0.0 0.00 0.05 0.05 34 1014.0
20260902231529 79 280 0.0 0.0 0.00 0.05 0.05 34 1013.8
20260902230021 79 36 0.0 0.0 0.00 0.05 0.05 35 1013.6
20260902224537 79 68 0.0 0.0 0.00 0.05 0.05 36 1013.6
20260902223019 79 27 0.0 0.0 0.00 0.05 0.05 35 1013.5
20260902221522 79 11 0.0 0.0 0.02 0.05 0.05 35 1013.4
20260902220043 79 9 0.0 0.0 0.05 0.05 0.05 36 1013.4
20260902214519 80 27 0.0 0.0 0.05 0.05 0.05 36 1013.4
20260902213015 80 269 0.0 0.0 0.05 0.05 0.05 42 1013.5
20260902211512 81 30 0.0 0.0 0.03 0.03 0.03 50 1013.4
20260902210019 85 17 0.0 0.0 0.00 0.00 0.00 76 1013.7
20260902204514 85 56 0.0 0.0 0.00 0.00 0.00 74 1013.6
20260902203010 85 332 0.0 0.0 0.00 0.00 0.00 77 1013.7
20260902201528 86 23 0.0 6.0 0.00 0.00 0.00 76 1013.7
20260902200009 86 98 0.0 0.0 0.00 0.00 0.00 73 1013.5
20260902194521 84 19 0.0 1.0 0.00 0.00 0.00 76 1013.7
20260902193021 84 25 0.0 0.0 0.00 0.00 0.00 78 1013.7
20260902191506 85 40 0.0 0.0 0.00 0.00 0.00 76 1013.7
20260902190005 87 65 0.0 6.0 0.00 0.00 0.00 73 1014.0
20260902184506 87 52 0.0 0.0 0.00 0.00 0.00 72 1014.0
20260902183004 84 37 0.0 0.0 0.00 0.00 0.00 77 1013.8
20260902181503 83 56 0.0 0.0 0.00 0.00 0.00 78 1013.9
20260902180004 84 49 0.0 0.0 0.00 0.00 0.00 77 1014.1
20260902174602 86 37 0.0 4.0 0.00 0.00 0.00 72 1014.1
20260902173111 86 65 0.0 0.0 0.00 0.00 0.00 74 1014.3
20260902171602 84 353 0.0 0.0 0.00 0.00 0.00 76 1014.5
20260902170057 83 314 0.0 0.0 0.00 0.00 0.00 78 1014.8
20260902164602 83 65 0.0 0.0 0.00 0.00 0.00 78 1015.0
20260902163101 84 34 0.0 0.0 0.00 0.00 0.00 76 1015.4
20260902161554 84 15 0.0 0.0 0.00 0.00 0.00 74 1015.3
20260902160104 86 39 0.0 0.0 0.00 0.00 0.00 71 1015.3
20260902154554 90 49 0.0 3.0 0.00 0.00 0.00 65 1015.4
20260902153055 92 77 0.0 1.0 0.00 0.00 0.00 59 1015.4
20260902151549 91 126 0.0 7.0 0.00 0.00 0.00 59 1015.5
20260902150049 91 123 0.0 0.0 0.00 0.00 0.00 60 1015.8
20260902144547 90 145 0.0 8.0 0.00 0.00 0.00 61 1015.8
20260902143045 90 119 0.0 0.0 0.00 0.00 0.00 62 1016.0
20260902141542 89 37 0.0 0.0 0.00 0.00 0.00 65 1016.1
20260902140039 87 264 0.0 0.0 0.00 0.00 0.00 69 1016.3
20260902134548 87 125 0.0 0.0 0.00 0.00 0.00 69 1016.3
20260902133039 87 268 0.0 0.0 0.00 0.00 0.00 69 1016.3
20260902131542 87 143 0.0 0.0 0.00 0.00 0.00 69 1016.3
20260902130038 87 70 0.0 0.0 0.00 0.00 0.00 69 1016.2
20260902124532 85 64 0.0 0.0 0.00 0.00 0.00 72 1016.1
20260902123034 85 33 0.0 0.0 0.00 0.00 0.00 74 1016.1
20260902121529 86 178 0.0 0.0 0.00 0.00 0.00 75 1015.8
20260902120027 84 178 0.0 0.0 0.00 0.00 0.00 79 1015.8
20260902114523 83 178 0.0 0.0 0.00 0.00 0.00 80 1015.7
20260902113019 80 178 0.0 0.0 0.00 0.00 0.00 79 1015.5
20260902111518 80 178 0.0 0.0 0.00 0.00 0.00 78 1015.4
20260902110015 78 178 0.0 0.0 0.00 0.00 0.00 70 1015.3
20260902104513 77 178 0.0 0.0 0.00 0.00 0.00 55 1015.3
20260902103012 76 178 0.0 0.0 0.00 0.00 0.00 54 1015.0
20260902101512 76 180 0.0 0.0 0.00 0.00 0.00 56 1014.9
20260902100014 77 208 0.0 0.0 0.00 0.00 0.00 58 1014.8
20260902094510 77 208 0.0 0.0 0.00 0.00 0.00 58 1014.8
20260902093014 77 208 0.0 0.0 0.00 0.00 0.00 57 1014.6
20260902091508 77 208 0.0 0.0 0.00 0.00 0.00 56 1014.6
20260902090005 77 208 0.0 0.0 0.00 0.00 0.00 58 1014.4
20260902084507 77 208 0.0 0.0 0.00 0.00 0.00 58 1014.5